This demonstration page uses our WeatherBlox Daily Observations layout. Learn more.

Left ArrowRight Arrow

44.89941, -97.11507

Hourly Observations for April 26, 2016

Temp ( °F °C ) Dew Point ( °F °C ) Humidity (%) Winds ( mph kmh ) Pressure ( in mb ) Visibility ( mi km ) Precip ( " mm )
12:53 am 00:53 Cloudy 45 7.2 40 4.4 83 83 WNW 6 9 29.81 1010 10 16 0.00 0.00
1:53 am 01:53 Cloudy 44 6.7 39 3.9 83 83 W 7 11 29.82 1010 10 16 0.00 0.00
2:53 am 02:53 Cloudy 44 6.7 40 4.4 85 85 W 7 11 29.82 1010 10 16 0.00 0.00
3:38 am 03:38 Cloudy 43 6.1 40 4.4 89 89 WSW 6 9 29.83 1010 10 16 0.00 0.00
3:53 am 03:53 Cloudy 43 6.1 41 5 93 93 WSW 5 7 29.83 1010 10 16 0.00 0.00
4:31 am 04:31 Cloudy 43 6.1 41 5 93 93 WSW 5 7 29.83 1010 10 16 0.00 0.00
4:40 am 04:40 Cloudy 43 6.1 41 5 93 93 W 5 7 29.83 1010 10 16 0.00 0.00
4:53 am 04:53 Cloudy 43 6.1 41 5 93 93 W 3 6 29.83 1010 10 16 0.00 0.00
5:00 am 05:00 Cloudy 43 6.1 41 5 93 93 WSW 3 6 29.83 1010 7 11 0.00 0.00
5:10 am 05:10 Cloudy 43 6.1 41 5 93 93 Calm 29.83 1010 7 11 0.00 0.00
5:51 am 05:51 Cloudy 45 7 41 5 87 87 Calm 29.83 1010 10 16 0.00 0.00
5:53 am 05:53 Cloudy 44 6.7 41 5 89 89 Calm 29.83 1010 10 16 0.00 0.00
6:53 am 06:53 Mostly Cloudy 42 5.6 40 4.4 92 92 NE 5 7 29.83 1010 10 16 0.00 0.00
7:16 am 07:16 Cloudy 44 6.7 41 5 89 89 NE 7 11 29.83 1010 10 16 0.00 0.00
7:37 am 07:37 Cloudy 44 6.7 41 5 89 89 NE 7 11 29.83 1010 10 16 0.00 0.00
7:53 am 07:53 Cloudy with Mist and Fog 44 6.7 41 5 89 89 ENE 12 19 29.83 1010 6 10 0.00 0.00
8:53 am 08:53 Cloudy with Mist and Fog 44 6.7 41 5 89 89 ENE 10 17 29.87 1012 2 3 0.00 0.00
9:37 am 09:37 Cloudy with Mist and Fog 45 7.2 42 5.6 90 90 ENE 12 19 29.85 1011 3 5 0.00 0.00
9:53 am 09:53 Cloudy 45 7.2 42 5.6 90 90 ENE 10 17 29.87 1012 9 14 0.00 0.00
10:01 am 10:01 Cloudy 45 7.2 42 5.6 90 90 ENE 9 15 29.88 1012 9 14 0.00 0.00
10:28 am 10:28 Cloudy 44 6.7 41 5 89 89 E 9 15 29.91 1013 9 14 0.00 0.00
10:53 am 10:53 Cloudy 44 6.7 41 5 89 89 ENE 6 9 29.93 1013 10 16 0.00 0.00
11:17 am 11:17 Cloudy with Mist and Fog 44 6.7 41 5 89 89 ENE 5 7 29.94 1014 3 4 0.00 0.00
11:26 am 11:26 Cloudy with Mist and Fog 44 6.7 41 5 89 89 NE 3 6 29.94 1014 3 5 0.00 0.00
11:53 am 11:53 Cloudy with Mist and Fog 45 7.2 42 5.6 90 90 ENE 9 15 29.92 1013 4 6 0.00 0.00
12:22 pm 12:22 Cloudy 47 8.3 41 5 80 80 NE 7 11 29.94 1014 10 16 0.00 0.00
12:53 pm 12:53 Cloudy 47 8.3 41 5 80 80 NE 10 17 29.91 1013 10 16 0.00 0.00
1:53 pm 13:53 Mostly Cloudy 49 9.4 41 5 74 74 ENE 23 37 29.83 1010 10 16 0.00 0.00
2:22 pm 14:22 Cloudy 46 7.8 40 4.4 79 79 ENE 21 33 29.85 1011 10 16 0.00 0.00
2:53 pm 14:53 Cloudy 45 7.2 40 4.4 83 83 ENE 14 22 29.88 1012 10 16 0.00 0.00
3:33 pm 15:33 Cloudy 43 6.1 40 4.4 89 89 ENE 16 26 29.91 1013 7 11 0.00 0.00
3:51 pm 15:51 Cloudy 45 7 39 4 81 81 E 13 20 29.91 1013 10 16 0.00 0.00
3:53 pm 15:53 Cloudy 44 6.7 40 4.4 85 85 E 14 22 29.90 1012 10 16 0.00 0.00
4:53 pm 16:53 Cloudy 43 6.1 40 4.4 89 89 ENE 14 22 29.90 1013 9 14 0.00 0.00
5:39 pm 17:39 Cloudy with Mist and Fog 43 6.1 40 4.4 89 89 ENE 15 24 29.88 1012 5 8 0.00 0.00
5:53 pm 17:53 Cloudy with Mist and Fog 43 6.1 41 5 93 93 E 13 20 29.88 1012 3 5 0.00 0.00
6:25 pm 18:25 Cloudy 43 6.1 40 4.4 89 89 E 14 22 29.88 1012 8 13 0.00 0.00
6:53 pm 18:53 Cloudy with Mist and Fog 43 6.1 40 4.4 89 89 E 14 22 29.89 1012 4 6 0.00 0.00
7:00 pm 19:00 Cloudy with Mist and Fog 43 6.1 41 5 93 93 ENE 14 22 29.88 1012 4 6 0.00 0.00
7:08 pm 19:08 Cloudy with Mist and Fog 43 6.1 41 5 93 93 ENE 14 22 29.88 1012 2 3 0.00 0.00
7:28 pm 19:28 Cloudy with Mist and Fog 43 6.1 41 5 93 93 ENE 13 20 29.85 1011 2 3 0.00 0.00
7:53 pm 19:53 Cloudy with Mist and Fog 43 6.1 41 5 93 93 ENE 14 22 29.87 1012 3 4 0.00 0.00
8:26 pm 20:26 Cloudy with Mist and Fog 43 6.1 40 4.4 89 89 E 14 22 29.91 1013 3 5 0.00 0.00
8:53 pm 20:53 Cloudy with Mist and Fog 43 6.1 40 4.4 89 89 E 12 19 29.95 1014 4 6 0.00 0.00
9:08 pm 21:08 Cloudy with Mist and Fog 43 6.1 40 4.4 89 89 E 10 17 29.97 1015 4 6 0.00 0.00
9:53 pm 21:53 Cloudy 43 6.1 40 4.4 89 89 E 12 19 29.93 1014 7 11 0.00 0.00
10:53 pm 22:53 Cloudy 42 5.6 39 3.9 89 89 ENE 14 22 29.92 1013 7 11 0.00 0.00
11:53 pm 23:53 Cloudy 42 5.6 40 4.4 92 92 E 13 20 29.88 1012 10 16 0.00 0.00

Powered by AerisWeather